• In Netherlands
  • List of Countries
  • For 7 days
  • Water Temperature
  • Satellite Maps
  • Weather Map
  • Weather Widgets
  • user-avatar
    Login

    Hourly Weather Manama

    Today, 28 May, Sunday

    Time Temperature Precipitation Wind Pressure Humidity
    00:00 +37°C° 0 mm 5 mps 752 mmHg 34%
    01:00 +38°C° 0 mm 6 mps 752 mmHg 36%
    02:00 +38°C° 0 mm 6 mps 752 mmHg 38%
    03:00 +36°C° 0 mm 6 mps 752 mmHg 39%
    04:00 +36°C° 0 mm 7 mps 752 mmHg 41%
    05:00 +36°C° 0 mm 7 mps 752 mmHg 42%
    06:00 +37°C° 0 mm 8 mps 752 mmHg 44%
    07:00 +38°C° 0 mm 8 mps 753 mmHg 39%
    08:00 +39°C° 0 mm 9 mps 753 mmHg 34%
    09:00 +42°C° 0 mm 9 mps 753 mmHg 29%
    10:00 +42°C° 0 mm 9 mps 753 mmHg 27%
    11:00 +43°C° 0 mm 9 mps 753 mmHg 26%
    12:00 +44°C° 0 mm 9 mps 753 mmHg 24%
    13:00 +43°C° 0 mm 9 mps 753 mmHg 25%
    14:00 +43°C° 0 mm 9 mps 752 mmHg 25%
    15:00 +43°C° 0 mm 9 mps 752 mmHg 26%
    16:00 +42°C° 0 mm 9 mps 752 mmHg 26%
    17:00 +40°C° 0 mm 9 mps 752 mmHg 27%
    18:00 +40°C° 0 mm 9 mps 752 mmHg 27%
    19:00 +39°C° 0 mm 9 mps 752 mmHg 27%
    20:00 +39°C° 0 mm 8 mps 752 mmHg 27%
    21:00 +39°C° 0 mm 8 mps 752 mmHg 28%
    22:00 +38°C° 0 mm 8 mps 752 mmHg 28%
    23:00 +38°C° 0 mm 8 mps 752 mmHg 29%

    Tomorrow, 29 May, Monday

    Time Temperature Precipitation Wind Pressure Humidity
    00:00 +38°C° 0 mm 8 mps 752 mmHg 29%
    01:00 +38°C° 0 mm 8 mps 752 mmHg 32%
    02:00 +37°C° 0 mm 8 mps 752 mmHg 35%
    03:00 +37°C° 0 mm 8 mps 752 mmHg 37%
    04:00 +37°C° 0 mm 9 mps 752 mmHg 38%
    05:00 +37°C° 0 mm 9 mps 752 mmHg 38%
    06:00 +37°C° 0 mm 9 mps 752 mmHg 39%
    07:00 +38°C° 0 mm 9 mps 753 mmHg 33%
    08:00 +40°C° 0 mm 9 mps 753 mmHg 27%
    09:00 +43°C° 0 mm 9 mps 753 mmHg 22%
    10:00 +43°C° 0 mm 9 mps 753 mmHg 20%
    11:00 +44°C° 0 mm 9 mps 753 mmHg 19%
    12:00 +45°C° 0 mm 9 mps 753 mmHg 17%
    13:00 +45°C° 0 mm 9 mps 753 mmHg 17%
    14:00 +45°C° 0 mm 9 mps 752 mmHg 17%
    15:00 +45°C° 0 mm 9 mps 752 mmHg 16%
    16:00 +44°C° 0 mm 9 mps 752 mmHg 17%
    17:00 +44°C° 0 mm 9 mps 752 mmHg 18%
    18:00 +43°C° 0 mm 8 mps 752 mmHg 19%
    19:00 +41°C° 0 mm 8 mps 752 mmHg 21%
    20:00 +41°C° 0 mm 8 mps 752 mmHg 23%
    21:00 +40°C° 0 mm 8 mps 753 mmHg 24%
    22:00 +40°C° 0 mm 8 mps 752 mmHg 25%
    23:00 +40°C° 0 mm 8 mps 752 mmHg 26%

    Day after tomorrow, 30 May, Tuesday

    Time Temperature Precipitation Wind Pressure Humidity
    00:00 +40°C° 0 mm 8 mps 752 mmHg 27%
    01:00 +39°C° 0 mm 8 mps 752 mmHg 30%
    02:00 +39°C° 0 mm 8 mps 751 mmHg 32%
    03:00 +38°C° 0 mm 8 mps 751 mmHg 35%
    04:00 +38°C° 0 mm 8 mps 752 mmHg 37%
    05:00 +38°C° 0 mm 8 mps 752 mmHg 38%
    06:00 +38°C° 0 mm 8 mps 752 mmHg 40%
    07:00 +40°C° 0 mm 9 mps 752 mmHg 33%
    08:00 +43°C° 0 mm 9 mps 753 mmHg 26%
    09:00 +45°C° 0 mm 10 mps 753 mmHg 18%
    10:00 +47°C° 0 mm 10 mps 753 mmHg 17%
    11:00 +48°C° 0 mm 10 mps 752 mmHg 15%
    12:00 +48°C° 0 mm 11 mps 752 mmHg 13%
    13:00 +48°C° 0 mm 11 mps 752 mmHg 13%
    14:00 +48°C° 0 mm 11 mps 751 mmHg 13%
    15:00 +48°C° 0 mm 11 mps 751 mmHg 14%
    16:00 +47°C° 0 mm 11 mps 751 mmHg 15%
    17:00 +47°C° 0 mm 11 mps 751 mmHg 16%
    18:00 +45°C° 0 mm 10 mps 751 mmHg 17%
    19:00 +44°C° 0 mm 10 mps 751 mmHg 19%
    20:00 +44°C° 0 mm 10 mps 751 mmHg 21%
    21:00 +43°C° 0 mm 10 mps 752 mmHg 23%
    22:00 +42°C° 0 mm 10 mps 751 mmHg 24%
    23:00 +42°C° 0 mm 10 mps 751 mmHg 26%

    31 May, Wednesday

    Time Temperature Precipitation Wind Pressure Humidity
    00:00 +42°C° 0 mm 10 mps 751 mmHg 27%
    01:00 +40°C° 0 mm 10 mps 751 mmHg 29%
    02:00 +39°C° 0 mm 10 mps 751 mmHg 31%
    03:00 +39°C° 0 mm 10 mps 751 mmHg 32%
    04:00 +39°C° 0 mm 10 mps 751 mmHg 33%
    05:00 +39°C° 0 mm 10 mps 751 mmHg 33%
    06:00 +38°C° 0 mm 10 mps 752 mmHg 33%
    07:00 +41°C° 0 mm 11 mps 752 mmHg 28%
    08:00 +43°C° 0 mm 11 mps 752 mmHg 23%
    09:00 +44°C° 0 mm 11 mps 752 mmHg 17%
    10:00 +46°C° 0 mm 12 mps 752 mmHg 16%
    11:00 +47°C° 0 mm 12 mps 752 mmHg 14%
    12:00 +47°C° 0 mm 12 mps 751 mmHg 13%
    13:00 +47°C° 0 mm 12 mps 751 mmHg 13%
    14:00 +47°C° 0 mm 12 mps 751 mmHg 13%
    15:00 +48°C° 0 mm 11 mps 750 mmHg 13%
    16:00 +47°C° 0 mm 11 mps 750 mmHg 14%
    17:00 +45°C° 0 mm 10 mps 750 mmHg 15%
    18:00 +45°C° 0 mm 10 mps 750 mmHg 16%
    19:00 +44°C° 0 mm 10 mps 750 mmHg 18%
    20:00 +43°C° 0 mm 10 mps 750 mmHg 19%
    21:00 +43°C° 0 mm 9 mps 750 mmHg 21%
    22:00 +42°C° 0 mm 10 mps 750 mmHg 22%
    23:00 +42°C° 0 mm 10 mps 750 mmHg 23%

    1 June, Thursday

    Time Temperature Precipitation Wind Pressure Humidity
    00:00 +40°C° 0 mm 10 mps 750 mmHg 24%
    01:00 +40°C° 0 mm 10 mps 750 mmHg 25%
    02:00 +41°C° 0 mm 11 mps 750 mmHg 26%
    03:00 +39°C° 0 mm 11 mps 750 mmHg 26%
    04:00 +39°C° 0 mm 11 mps 750 mmHg 28%
    05:00 +38°C° 0 mm 11 mps 751 mmHg 31%
    06:00 +38°C° 0 mm 11 mps 751 mmHg 33%
    07:00 +39°C° 0 mm 11 mps 752 mmHg 28%
    08:00 +42°C° 0 mm 12 mps 752 mmHg 24%
    09:00 +43°C° 0 mm 12 mps 752 mmHg 19%
    10:00 +43°C° 0 mm 12 mps 752 mmHg 19%
    11:00 +44°C° 0 mm 12 mps 751 mmHg 18%
    12:00 +44°C° 0 mm 12 mps 751 mmHg 18%
    13:00 +44°C° 0 mm 12 mps 751 mmHg 17%
    14:00 +46°C° 0 mm 12 mps 751 mmHg 16%
    15:00 +46°C° 0 mm 12 mps 750 mmHg 15%
    16:00 +44°C° 0 mm 12 mps 750 mmHg 17%
    17:00 +43°C° 0 mm 12 mps 750 mmHg 19%
    18:00 +43°C° 0 mm 11 mps 750 mmHg 20%
    19:00 +42°C° 0 mm 11 mps 751 mmHg 23%
    20:00 +41°C° 0 mm 11 mps 751 mmHg 25%
    21:00 +41°C° 0 mm 11 mps 751 mmHg 27%
    22:00 +39°C° 0 mm 11 mps 751 mmHg 29%
    23:00 +39°C° 0 mm 11 mps 751 mmHg 30%

    2 June, Friday

    Time Temperature Precipitation Wind Pressure Humidity
    00:00 +38°C° 0 mm 11 mps 751 mmHg 31%
    01:00 +38°C° 0 mm 11 mps 751 mmHg 33%
    02:00 +37°C° 0 mm 11 mps 751 mmHg 35%
    03:00 +37°C° 0 mm 11 mps 751 mmHg 37%
    04:00 +36°C° 0 mm 11 mps 751 mmHg 38%
    05:00 +36°C° 0 mm 10 mps 751 mmHg 38%
    06:00 +35°C° 0 mm 9 mps 752 mmHg 39%
    07:00 +38°C° 0 mm 9 mps 752 mmHg 33%
    08:00 +39°C° 0 mm 9 mps 752 mmHg 26%
    09:00 +42°C° 0 mm 9 mps 752 mmHg 20%
    10:00 +42°C° 0 mm 9 mps 751 mmHg 18%
    11:00 +43°C° 0 mm 10 mps 751 mmHg 16%
    12:00 +44°C° 0 mm 10 mps 751 mmHg 14%
    13:00 +44°C° 0 mm 10 mps 750 mmHg 14%
    14:00 +44°C° 0 mm 10 mps 750 mmHg 14%
    15:00 +44°C° 0 mm 10 mps 749 mmHg 14%
    16:00 +44°C° 0 mm 10 mps 750 mmHg 15%
    17:00 +43°C° 0 mm 10 mps 750 mmHg 17%
    18:00 +43°C° 0 mm 9 mps 750 mmHg 18%
    19:00 +42°C° 0 mm 9 mps 750 mmHg 21%
    20:00 +40°C° 0 mm 9 mps 750 mmHg 23%
    21:00 +39°C° 0 mm 8 mps 750 mmHg 25%
    22:00 +39°C° 0 mm 8 mps 750 mmHg 27%
    23:00 +39°C° 0 mm 8 mps 749 mmHg 30%
    Show more